Preview of NWS' New Version of Forecast
This preview is not operational and should not be used for support decisions.

Regional Weather Roundup (RWR)

Issued by Gray - Portland, ME (GYX)

                            
000
ASUS41 KGYX 180210
RWRGYX
WEATHER ROUNDUP FOR MAINE AND NEW HAMPSHIRE
NATIONAL WEATHER SERVICE GRAY ME
1000 PM EDT SAT AUG 17 2019

MEZ002-005-006-010-012-015-018-020-021-024-026-027-029-180300-
MAINE
  
CITY           SKY/WX    TMP DP  RH WIND       PRES   REMARKS
PORTLAND       CLOUDY    67  64  90 E5        30.04S                  
SANFORD        CLOUDY    67  66  97 SE5       30.05R                  
BAR HARBOR     CLOUDY    63  62  97 CALM      30.07S                  
WISCASSET      CLOUDY    65  63  93 SE3       30.07R                  
ROCKLAND       FOG       62  62 100 S5        30.07R VSB 1/2          
FRYEBURG       RAIN      67  65  93 E8        30.04S FOG              
LEWISTONAUBURN LGT RAIN  65  65 100 SE7       30.05S VSB 3/4          
AUGUSTA        CLOUDY    65  64  97 SE6       30.06S                  
WATERVILLE     CLOUDY    65  63  93 VRB3      30.04R                  
BANGOR         CLOUDY    66  62  87 S6        30.05F                  
GREENVILLE       N/A     62  62 100 VRB3      30.03F                  
MILLINOCKET    CLOUDY    65  62  90 CALM      30.05S                  
HOULTON        CLOUDY    64  62  93 S7        30.02F                  
PRESQUE ISLE   CLOUDY    63  62  97 SE3       30.03F                  
FRENCHVILLE    CLOUDY    63  60  90 SE6       30.01F                  
CARIBOU        CLOUDY    65  61  87 SE3       30.01F                  
$$

NHZ002-005-008-009-011-012-014-180300-
NEW HAMPSHIRE
  
CITY           SKY/WX    TMP DP  RH WIND       PRES   REMARKS
PORTSMOUTH     CLOUDY    68  66  96 E6        30.02R                  
ROCHESTER      CLOUDY    68  64  87 SE6       30.03S                  
NASHUA         MOCLDY    71  70  96 CALM      30.03R THUNDER          
MANCHESTER     CLOUDY    71  67  87 E3        30.00R THUNDER          
CONCORD        RAIN      66  65  96 E9        30.01F FOG              
LACONIA        LGT RAIN  68  66  93 E3        30.02F                  
PLYMOUTH       LGT RAIN  67  64  91 CALM      30.01R                  
BERLIN         RAIN      67  64  90 CALM      30.01F FOG              
WHITEFIELD     LGT RAIN  67  64  90 NE6       29.99F                  
JAFFREY        CLOUDY    69  65  86 CALM      30.05R                  
KEENE          FAIR      67  66  97 S5        30.02S                  
LEBANON        FAIR      68  64  87 CALM      30.01R                  
MT WASHINGTON  TSTM      54  54 100 S17G31      N/A  VSB 1/16         
$$

VTZ005-007-008-180300-
VERMONT
  
CITY           SKY/WX    TMP DP  RH WIND       PRES   REMARKS
ST JOHNSBURY     N/A     65  65 100 MISG      29.98R                  
MONTPELIER     FAIR      66  64  93 S3        30.04R                  
BURLINGTON     MOCLDY    68  65  90 S3        29.97R                  
$$

MAZ007-012-024-CTZ003-RIZ002-NYZ038-NYZ072-180300-
SOUTHERN NEW ENGLAND AND NY
  
CITY           SKY/WX    TMP DP  RH WIND       PRES   REMARKS
BOSTON         MOCLDY    68  64  87 SE6       30.01S                  
WORCESTER      CLOUDY    72  70  93 SE7       30.04S                  
NANTUCKET      FAIR      68  67  96 E5        30.02R                  
PROVIDENCE     CLOUDY    73  72  96 S5        30.01S                  
HARTFORD       TSTM      69  67  93 N7        30.00R                  
ALBANY         MOCLDY    68  65  90 S7        29.98F                  
NEW YORK CITY  FAIR      77  71  82 SE8       29.98R                  
$$

ANZ081-ANZ082-ANZ150-NHZ014-MEZ023>029-180300-
COASTAL MARINE OBSERVATIONS
  
STATION/POSITION TIME  TEMP    WIND        PRES    WAVE
                       AIR SEA DIR/SP/G            HT/PER
                 (UTC) (F)     (DEG/KT/KT) (MB)    (FT/S)
MATINICUS ROCK   0150   60                 1017.7R
ISLE OF SHOALS   0100   66     120/ 11/ 12 1016.0F
JEFFREYS LEDGE   0138      67                N/A     3/ 7
CASHES LEDGE BUO 0150   65 65  130/  6/  8 1018.1R   3/ 7
GEORGES BANK BUO 0150   72 70  100/ 12/ 14 1017.2S   3/ 7
$$

.............KEY..............
   WCI - WIND CHILL
   TC  - TEMPERATURE IN CELSIUS
   VSB - VISIBILITY IN MILES
   HX  - HEAT INDEX
   FAIR- INDICATES FEW OR NO CLOUDS BELOW 12,000 FT, WITH NO 
         SIGNIFICANT WEATHER AND/OR OBSTRUCTIONS TO VISIBILITY.